Weather Roundup
Issued by NWS

Home | Current Version | Previous Version | Text Only | Print | Product List | Glossary On
Versions: 1 2 3 4 5 6 7 8 9 10 11 12 13 14 15 16 17 18 19 20 21 22 23 24 25 26 27 28 29 30 31 32 33 34 35 36 37 38 39 40 41 42 43 44 45 46 47 48 49 50
000
NZUS93 KARX 190310
HRRWXR

CURRENT HOURLY OBSERVATIONS ACROSS
MUCH OF THE UPPER MISSISSIPPI VALLEY
NATIONAL WEATHER SERVICE LA CROSSE WI
1000 PM CDT SAT APR 18 2015


...SOUTHEAST MINNESOTA...


CITY           SKY/WX    TMP DP  RH WIND       PRES   REMARKS
ROCHESTER      LGT RAIN  55  49  80 E7        29.93F
ROCHESTER/MAYO CLOUDY    58  46  65 E8        29.92F
WINONA         CLOUDY    61  30  31 SE13      29.94F
AUSTIN         LGT RAIN  55  52  88 E7        29.93R
ALBERT LEA     LGT RAIN  55  54  94 E10       29.90S
DODGE CENTER   LGT RAIN  55  54  94 SE5       29.92F
PRESTON        CLOUDY    61  35  37 E8        29.92F
OWATONNA       LGT RAIN  57  54  88 SE8       29.91F
FARIBAULT      LGT RAIN  55  54  94 E10       29.91F
$$

...ELSEWHERE IN MINNESOTA...


CITY           SKY/WX    TMP DP  RH WIND       PRES   REMARKS
MINNEAPOLIS    CLOUDY    65  35  33 E14       29.90F
INTNL FALLS    MOCLDY    50  16  25 SE12      29.97F
DULUTH         FAIR      41  25  53 E13       30.02F
RED WING       CLOUDY    64  28  25 SE13G21   29.93S
REDWOOD FALLS  LGT RAIN  57  55  93 E12       29.82F
MANKATO        CLOUDY    57  50  77 SE16      29.87F
WORTHINGTON    CLOUDY    54  52  94 SE8       29.84S
FAIRMONT       CLOUDY    57  52  82 SE18      29.84S
$$

...SOUTHWEST WISCONSIN...


CITY           SKY/WX    TMP DP  RH WIND       PRES   REMARKS
LA CROSSE      CLOUDY    62  26  25 SE8G17    29.95F
PRAIRIE DU CHI CLOUDY    65  26  23 E14G22    29.92S
BOSCOBEL       CLOUDY    63  30  28 NE8       29.96S
LONE ROCK      MOCLDY    59  31  34 E13       29.98S
PLATTEVILLE    MOCLDY    60  35  39 E10       29.95S
FORT MC COY    CLOUDY    57  18  22 E12       30.00S
CAMP DOUGLAS   MOCLDY    54  27  35 E13       30.01S
VIROQUA        FAIR      56  28  34 E16G22    29.96F
WIS DELLS      PTCLDY    53  27  36 E9        30.03R
$$

...ELSEWHERE IN WISCONSIN...


CITY           SKY/WX    TMP DP  RH WIND       PRES   REMARKS
MILWAUKEE      PTCLDY    42  32  67 NE9       30.08S
MADISON        MOCLDY    52  32  46 E9        30.03R
GREEN BAY      CLEAR     47  33  58 NE13      30.09F
EAU CLAIRE     CLOUDY    57  25  29 E13       29.97F
BLACK RVR FLS  FAIR      57  20  24 E13       29.99S
MEDFORD        CLOUDY    50  17  27 E12G17    30.03F
WAUSAU         PTCLDY    51  14  22 E14G23    30.04F
WIS RAPIDS     CLEAR     52  16  24 E12G20    30.04F
MARSHFIELD     PTCLDY    51  19  28 E15       30.02F
RICE LAKE      CLOUDY    57  25  29 E7        30.00F
$$

...NORTHEAST IOWA...


CITY           SKY/WX    TMP DP  RH WIND       PRES   REMARKS
DECORAH        CLOUDY    61  34  36 E15G23    29.90F
MASON CITY     LGT RAIN  57 N/A N/A E13       29.89F
CHARLES CITY   LGT RAIN  57  57 100 E8        29.93F
OELWEIN        CLOUDY    59  55  88 S8        29.95S
$$

...ELSEWHERE IN IOWA...


CITY           SKY/WX    TMP DP  RH WIND       PRES   REMARKS
DES MOINES     CLOUDY    62  59  90 SE3       29.82F
IOWA CITY      CLOUDY    60  57  89 N6        29.91S
FORT DODGE     CLOUDY    57  54  88 E10       29.83F
$$

...NORTHERN ILLINOIS...


CITY           SKY/WX    TMP DP  RH WIND       PRES   REMARKS
CHICAGO-OHARE  MOCLDY    48  34  58 NE9       30.02F
CHICAGO-MIDWAY CLOUDY    51  35  54 N10       30.01F
MOLINE         MOCLDY    63  46  54 E15       29.91S
ROCKFORD       MOCLDY    54  30  40 E13       30.01F
PEORIA         PTCLDY    69  47  45 E8        29.92S
$$

NOTE: "FAIR" INDICATES FEW OR NO CLOUDS BELOW 12,000 FEET WITH NO
SIGNIFICANT WEATHER AND/OR OBSTRUCTIONS TO VISIBILITY. WIND
SPEEDS ARE IN MILES-PER-HOUR.



USA.gov is the U.S. government's official web portal to all federal, state and local government web resources and services.